Temperature
6 6 6 6 6 6 6 6 6 6 6 6 7 7 7 7 7 6 7 7 7 7 7 7 6 6 6 6 6 6 6 6 6 6 6 5 5 5
6 6 6 6 6 6 6 6 6 6 5 6 6 6 6 6 6 6 6 6 6 6 6 6 6 6 6 6 6 6 6 5 5 5 5 5 5 5
5 5 5 5 5 5 5 5 5 5 5 5 5 5 5 5 6 6 6 6 6 6 6 6 5 5 5 5 5 5 5 5 5 5 5 5 5 4
5 5 5 5 5 5 5 5 5 5 5 5 5 5 5 5 5 5 5 5 5 5 5 5 5 5 5 5 5 5 5 4 4 4 4 4 4 4
4 4 5 4 4 4 4 4 4 4 4 4 4 4 4 4 4 4 5 5 5 4 4 4 4 4 4 4 4 4 4 4 4 4 4 4 4 4
3 3 4 4 4 4 4 4 4 4 3 3 4 4 4 4 4 4 4 4 4 4 4 4 4 4 4 4 4 4 4 3 3 3 3 3 3 3
3 3 3 3 3 3 3 3 3 3 3 3 3 3 3 3 3 3 3 3 3 3 3 3 3 3 3 3 3 3 3 3 3 3 3 3 3 2
2 2 2 2 3 2 2 2 2 3 3 2 2 2 3 3 3 2 2 2 2 3 3 3 3 3 3 3 2 2 2 2 2 2 2 2 2 2
2 2 2 2 2 2 2 2 2 2 2 2 2 2 2 2 2 2 2 2 2 2 2 2 2 2 2 2 2 2 2 2 1 1 1 1 1 1
1 2 2 2 1 1 2 2 2 2 2 2 2 2 2 2 2 2 1 1 1 1 1 1 1 1 1 1 1 1 1 1 1 1 1 1 0 0
1 1 1 1 1 1 1 1 1 2 2 1 1 1 1 1 1 1 1 1 1 1 1 0 0 0 0 0 0 0 0 0 0 0 0 -0 -0 -1
0 0 0 0 0 0 0 1 1 1 1 1 1 1 1 1 1 1 1 0 0 0 0 -0 -0 -0 -1 -0 -0 -0 -0 -0 -0 -0 -1 -1 -1 -1
-0 -0 -0 -0 -0 -0 -0 0 0 0 0 0 0 0 0 0 0 0 0 -0 -0 -0 -0 -0 -1 -1 -1 -1 -1 -1 -1 -1 -1 -1 -1 -1 -1 -2
-1 -1 -1 -1 -1 -0 -0 -0 -0 -0 -0 -0 -0 -0 -0 -0 -1 -1 -1 -1 -1 -0 -1 -1 -1 -1 -1 -2 -2 -2 -2 -2 -2 -2 -2 -2 -2 -2
-1 -1 -1 -1 -1 -1 -1 -1 -1 -1 -1 -1 -1 -1 -1 -1 -1 -1 -1 -1 -1 -1 -1 -1 -1 -2 -2 -2 -2 -2 -3 -3 -3 -3 -3 -3 -3 -3
-2 -2 -2 -2 -2 -1 -1 -1 -1 -2 -2 -2 -2 -2 -2 -2 -2 -2 -2 -2 -2 -2 -2 -2 -2 -2 -2 -2 -2 -3 -3 -3 -3 -3 -3 -3 -3 -3
-3 -3 -2 -2 -2 -2 -2 -2 -2 -2 -2 -2 -2 -2 -2 -2 -2 -2 -2 -2 -2 -2 -2 -3 -3 -3 -3 -3 -3 -3 -3 -3 -4 -4 -4 -4 -4 -4
-3 -3 -3 -3 -3 -3 -3 -3 -3 -3 -3 -3 -3 -3 -3 -3 -3 -3 -3 -3 -3 -3 -3 -3 -3 -3 -3 -3 -4 -4 -4 -4 -4 -4 -4 -4 -4 -4
-4 -4 -4 -4 -4 -3 -3 -3 -3 -3 -3 -3 -3 -3 -3 -3 -3 -3 -3 -3 -4 -4 -4 -4 -4 -4 -4 -4 -4 -4 -4 -5 -5 -5 -5 -5 -5 -5
-5 -5 -4 -4 -4 -4 -4 -4 -4 -4 -4 -4 -4 -4 -4 -4 -4 -4 -4 -4 -4 -4 -4 -4 -5 -5 -5 -5 -5 -5 -5 -5 -5 -5 -5 -5 -5 -5
-5 -5 -5 -5 -5 -4 -4 -4 -4 -4 -4 -4 -4 -4 -4 -4 -4 -4 -4 -4 -4 -5 -5 -5 -5 -5 -5 -6 -6 -5 -5 -5 -6 -6 -6 -6 -6 -6
-6 -5 -5 -5 -5 -5 -5 -5 -5 -5 -5 -5 -5 -5 -5 -5 -5 -5 -5 -5 -5 -5 -5 -5 -6 -6 -6 -6 -6 -6 -6 -6 -6 -6 -6 -6 -7 -7
-6 -6 -6 -6 -6 -6 -6 -5 -5 -5 -5 -5 -5 -5 -5 -5 -5 -5 -5 -5 -6 -6 -6 -6 -6 -6 -6 -6 -6 -6 -6 -6 -6 -6 -6 -7 -7 -7
Wind_Speed
4 4 3 3 2 3 3 4 4 3 4 4 3 3 4 4 5 5 6 7 8 7 7 8 8 8 8 8 9 8 8 8 8 8 7 8 8 8
3 4 3 2 2 2 3 3 3 4 4 3 3 3 3 3 5 5 6 6 7 8 8 8 8 8 8 8 8 8 8 9 9 9 9 9 9 9
3 4 4 3 3 2 2 2 2 3 4 3 2 2 3 3 3 4 5 5 5 7 8 8 8 8 8 8 9 8 8 8 9 9 8 8 9 9
4 3 4 3 3 3 3 3 3 3 3 4 3 2 3 3 3 3 3 4 5 6 8 8 9 9 9 9 9 8 8 8 8 8 8 8 9 9
4 4 4 4 4 3 4 4 3 3 3 3 3 2 2 2 2 2 2 3 4 5 7 8 8 8 8 8 7 7 7 7 7 7 8 8 8 8
4 4 4 5 5 5 4 4 4 3 3 3 3 3 2 2 2 2 2 2 2 3 5 6 6 7 7 6 6 6 6 6 6 6 6 6 5 6
4 4 4 5 5 5 4 4 4 4 4 4 4 3 3 2 3 2 3 2 2 2 2 2 3 3 4 5 5 5 6 5 5 4 4 4 4 5
4 4 3 4 5 6 5 5 6 6 5 5 4 5 5 4 2 3 2 2 3 1 1 2 1 2 3 4 5 5 5 4 4 3 3 3 3 4
4 3 3 3 4 4 5 5 6 7 7 6 6 7 6 6 5 4 4 4 4 2 1 2 1 2 3 3 4 4 4 4 4 3 3 3 4 4
4 4 4 4 4 4 3 3 4 4 6 5 6 6 5 5 6 5 4 2 1 1 1 2 2 2 2 2 3 4 4 4 4 3 3 4 4 5
2 2 3 3 5 4 4 4 4 3 4 6 6 6 6 6 5 3 3 3 2 2 1 2 2 1 2 2 2 3 3 3 3 3 3 4 4 4
2 2 3 3 4 4 4 4 5 4 2 1 2 2 3 4 5 5 5 4 2 2 2 2 2 1 1 2 1 0 1 2 3 3 4 4 4 2
2 2 2 3 3 3 3 3 5 3 3 3 2 1 1 2 2 2 3 3 3 3 3 2 2 1 2 2 2 1 0 0 1 2 3 3 4 3
3 2 2 3 3 3 2 2 2 2 2 2 2 2 1 1 1 1 1 1 1 2 3 3 2 2 2 2 2 1 1 1 1 1 2 3 4 4
2 2 2 3 2 2 2 2 1 2 2 2 2 2 1 1 2 2 2 3 3 3 1 1 2 2 2 2 2 2 1 1 1 1 2 2 3 2
1 1 2 1 1 0 1 1 1 2 2 2 2 1 1 2 1 1 1 1 1 2 3 3 1 2 1 1 2 2 2 2 1 2 2 3 4 3
1 0 0 0 0 0 0 0 1 1 1 1 2 2 2 1 1 1 1 1 1 1 1 2 3 3 1 1 2 2 2 1 2 2 2 3 4 4
1 1 1 1 1 1 1 0 0 1 1 2 2 2 2 2 1 1 1 1 1 1 1 0 0 1 1 2 1 2 1 1 2 2 1 2 4 4
1 1 1 2 2 2 2 1 1 1 1 2 2 2 2 2 2 1 1 1 1 1 1 1 1 1 1 2 2 1 2 2 2 2 2 2 4 5
0 1 1 1 1 1 1 1 1 1 1 2 2 2 2 2 2 2 2 2 1 1 1 0 1 1 2 3 2 2 2 2 2 2 3 3 4 6
0 0 1 1 1 1 1 1 1 1 1 1 2 2 2 2 2 2 2 3 2 1 2 2 1 1 0 0 1 2 2 3 3 3 2 2 3 3
1 0 0 0 0 1 1 1 1 1 1 1 2 2 2 2 3 3 3 3 2 2 2 1 0 0 0 1 2 3 3 4 4 4 4 4 2 2
1 1 0 0 0 0 1 1 1 1 1 2 2 2 2 2 2 2 3 3 2 2 2 1 1 0 1 2 2 2 3 3 3 3 3 5 5 7
Wind_Direction
206 203 205 209 198 199 189 184 191 228 246 236 238 233 231 231 238 235 240 247 246 245 250 256 256 253 249 248 238 236 238 243 247 247 252 261 268 271
212 199 208 209 196 190 193 198 198 211 238 231 228 235 232 239 243 237 239 248 243 243 250 256 256 248 245 241 240 241 240 242 242 246 251 258 264 270
222 207 209 204 199 200 194 196 203 200 232 250 231 233 221 228 249 243 243 244 246 247 249 252 252 245 245 242 244 244 242 242 244 247 251 256 262 267
218 213 211 204 203 203 199 206 213 210 215 239 250 234 236 229 226 228 243 251 251 253 251 252 250 246 243 241 242 241 241 245 247 249 253 258 263 265
214 216 212 200 212 212 210 214 215 217 209 219 243 244 241 227 221 243 251 262 265 258 254 254 251 250 245 240 239 241 244 248 250 250 253 256 259 262
219 219 214 205 211 211 214 214 209 207 205 210 225 234 236 227 201 225 261 261 272 275 263 258 254 250 244 240 237 240 243 246 252 253 251 247 246 253
227 227 229 225 217 214 216 209 203 207 207 213 221 229 226 209 220 217 238 258 278 248 247 260 256 252 250 239 239 241 242 243 241 241 243 246 251 254
228 229 233 233 225 227 229 222 211 209 209 215 224 224 224 217 214 220 222 239 265 229 211 280 257 258 255 248 237 230 229 231 230 234 242 254 262 268
223 225 238 245 247 225 232 238 238 236 228 220 219 224 218 209 200 215 222 229 244 207 189 272 290 279 275 246 232 224 225 227 229 233 242 256 265 271
220 219 224 234 233 221 213 224 233 237 237 230 227 229 224 208 205 212 213 220 260 268 209 248 261 262 284 270 229 230 234 231 230 236 247 259 269 275
238 234 224 227 237 231 219 220 234 248 255 246 241 233 229 221 198 169 177 189 237 251 214 208 229 271 301 290 257 239 233 230 229 239 257 265 267 276
246 252 254 249 249 238 221 212 225 233 212 237 234 220 210 205 203 196 192 197 213 235 211 185 198 190 283 289 288 297 259 257 253 258 262 261 266 285
232 245 255 260 258 249 239 224 228 217 196 193 185 172 158 173 183 194 191 196 206 233 198 173 193 202 220 266 301 316 267 290 306 292 276 265 265 265
227 237 249 256 262 259 245 240 234 206 179 175 180 195 191 189 161 144 131 137 208 229 204 193 203 204 210 253 267 285 322 315 300 298 310 299 290 275
240 249 261 268 265 255 243 230 212 187 170 174 192 206 190 161 127 105 84 75 55 35 105 205 177 187 203 226 240 254 280 289 258 257 283 291 285 285
266 268 279 270 268 265 236 214 178 179 172 181 182 168 122 118 120 118 112 98 65 27 30 42 118 163 201 218 219 244 251 233 242 273 285 287 286 274
223 201 355 22 131 49 75 119 144 152 165 153 154 148 140 133 126 105 112 114 147 184 27 30 48 59 55 209 221 224 228 253 254 282 296 293 285 279
223 207 222 213 213 217 217 206 157 180 182 165 159 162 168 168 159 131 125 141 168 191 191 199 87 33 21 6 261 220 232 244 263 271 264 279 285 288
229 206 220 221 219 214 213 212 220 215 178 167 168 170 171 171 168 171 163 149 173 208 233 226 211 180 229 276 309 260 217 246 270 284 271 259 269 282
260 217 226 227 226 225 224 223 204 186 175 173 171 172 176 177 179 184 184 184 198 220 246 263 234 209 214 227 248 288 283 242 257 277 285 285 280 289
325 300 265 231 238 234 227 215 199 198 196 178 178 178 181 179 188 192 189 190 199 205 219 251 261 226 124 89 290 299 310 294 265 255 269 288 297 302
308 283 280 240 220 223 215 193 174 179 194 186 185 186 188 189 191 192 194 197 206 206 228 259 256 117 179 215 250 276 301 319 322 307 278 253 240 250
330 335 334 283 238 189 189 181 185 201 210 198 189 188 187 192 197 198 200 199 195 193 194 219 269 279 254 237 248 272 290 305 318 330 318 308 284 279
Height
1500 1502 1503 1505 1506 1508 1509 1510 1512 1511 1511 1513 1514 1515 1516 1517 1517 1518 1518 1519 1519 1520 1520 1521 1522 1522 1523 1523 1523 1524 1524 1525 1526 1526 1526 1527 1526 1526
1495 1497 1498 1500 1501 1503 1504 1506 1507 1508 1507 1508 1509 1510 1511 1512 1513 1513 1513 1514 1514 1515 1515 1516 1517 1517 1518 1518 1519 1519 1520 1520 1521 1521 1521 1522 1522 1521
1491 1492 1493 1495 1497 1498 1499 1501 1502 1503 1503 1503 1504 1506 1506 1507 1508 1508 1509 1509 1509 1510 1510 1511 1512 1512 1513 1513 1513 1514 1515 1515 1516 1516 1516 1516 1516 1516
1486 1487 1489 1491 1492 1493 1494 1495 1497 1498 1498 1498 1499 1500 1501 1502 1503 1503 1504 1504 1505 1505 1506 1506 1507 1507 1508 1508 1508 1509 1510 1510 1511 1511 1511 1511 1511 1510
1481 1482 1484 1486 1487 1488 1489 1490 1491 1492 1493 1493 1494 1495 1496 1497 1497 1498 1499 1499 1500 1500 1500 1501 1502 1502 1502 1503 1503 1504 1504 1505 1505 1505 1505 1505 1505 1505
1477 1478 1479 1481 1482 1483 1484 1485 1486 1487 1488 1489 1489 1490 1491 1492 1492 1493 1493 1494 1495 1495 1495 1496 1496 1496 1497 1497 1498 1498 1499 1499 1499 1499 1499 1499 1499 1499
1472 1473 1475 1476 1477 1478 1479 1480 1481 1482 1483 1483 1484 1485 1486 1487 1488 1488 1489 1489 1489 1490 1490 1491 1491 1491 1491 1492 1492 1493 1493 1494 1494 1494 1494 1494 1494 1494
1467 1468 1470 1471 1472 1473 1474 1475 1476 1477 1478 1479 1479 1480 1480 1482 1483 1484 1484 1484 1484 1486 1486 1486 1486 1486 1486 1487 1487 1488 1488 1489 1489 1489 1489 1489 1489 1489
1463 1464 1464 1466 1467 1468 1469 1470 1471 1472 1473 1474 1474 1475 1476 1477 1478 1478 1479 1479 1479 1480 1481 1480 1481 1481 1482 1482 1483 1483 1483 1484 1484 1484 1484 1484 1484 1484
1459 1459 1460 1461 1462 1463 1464 1465 1466 1467 1468 1469 1469 1470 1471 1472 1473 1474 1474 1474 1475 1476 1477 1476 1477 1477 1478 1478 1479 1479 1479 1480 1480 1480 1480 1479 1479 1479
1454 1455 1456 1457 1458 1459 1460 1460 1461 1462 1463 1463 1464 1465 1466 1467 1468 1468 1469 1469 1469 1470 1472 1472 1472 1473 1473 1474 1474 1475 1475 1475 1475 1475 1475 1474 1474 1474
1450 1451 1452 1453 1454 1454 1455 1456 1456 1457 1458 1458 1459 1459 1460 1461 1463 1463 1464 1464 1465 1466 1467 1468 1468 1469 1469 1469 1470 1470 1470 1470 1470 1470 1470 1469 1469 1468
1447 1447 1448 1449 1450 1450 1451 1451 1452 1452 1453 1453 1454 1454 1455 1456 1457 1458 1459 1460 1461 1461 1463 1464 1464 1464 1465 1465 1465 1466 1466 1466 1465 1465 1465 1465 1464 1464
1443 1444 1444 1445 1446 1446 1447 1447 1448 1448 1448 1449 1449 1450 1451 1452 1453 1454 1455 1456 1457 1458 1459 1460 1460 1460 1460 1460 1460 1460 1461 1461 1461 1460 1460 1460 1459 1459
1439 1440 1441 1441 1442 1442 1442 1443 1444 1444 1444 1445 1445 1447 1448 1449 1450 1451 1451 1452 1453 1454 1455 1455 1456 1456 1457 1456 1456 1456 1456 1456 1456 1456 1455 1455 1454 1454
1435 1436 1437 1437 1438 1438 1438 1439 1440 1440 1441 1441 1442 1444 1445 1445 1446 1447 1448 1448 1449 1450 1451 1452 1452 1452 1452 1452 1452 1452 1452 1452 1452 1452 1451 1450 1450 1449
1432 1432 1432 1433 1433 1434 1434 1435 1436 1437 1438 1438 1439 1440 1441 1442 1443 1444 1445 1445 1446 1446 1447 1448 1448 1449 1449 1449 1448 1448 1448 1448 1448 1448 1447 1446 1446 1445
1428 1428 1428 1429 1429 1430 1431 1432 1433 1434 1435 1435 1436 1437 1438 1439 1440 1441 1442 1442 1443 1443 1443 1444 1445 1444 1445 1444 1445 1444 1444 1444 1444 1444 1443 1442 1441 1441
1424 1424 1425 1425 1426 1427 1428 1428 1429 1430 1432 1433 1433 1434 1435 1436 1437 1438 1438 1439 1440 1440 1441 1441 1441 1441 1441 1440 1441 1442 1441 1440 1440 1440 1439 1438 1437 1437
1420 1421 1421 1422 1423 1424 1425 1425 1426 1427 1428 1429 1430 1431 1432 1433 1434 1435 1435 1436 1437 1437 1437 1438 1438 1438 1438 1438 1437 1437 1438 1437 1437 1436 1435 1434 1434 1433
1417 1418 1419 1420 1420 1421 1422 1423 1423 1424 1425 1426 1427 1428 1429 1430 1431 1431 1432 1433 1434 1434 1434 1434 1435 1435 1435 1435 1435 1433 1434 1434 1434 1433 1432 1431 1429 1428
1415 1415 1416 1417 1418 1418 1419 1420 1420 1421 1422 1423 1424 1425 1426 1427 1428 1428 1429 1430 1430 1430 1431 1431 1432 1432 1432 1432 1431 1430 1430 1430 1430 1430 1429 1428 1426 1424
1413 1413 1414 1414 1415 1416 1416 1417 1417 1418 1419 1420 1421 1422 1423 1423 1424 1425 1426 1426 1427 1427 1428 1428 1428 1429 1429 1429 1428 1428 1427 1427 1427 1426 1426 1425 1424 1423